Regional Weather Roundup
Issued by NWS Sterling, VA

Home | Current Version | Previous Version | Graphics & Text | Print | Product List | Glossary On
Versions: 1 2 3 4 5 6 7 8 9 10 11 12 13 14 15 16 17 18 19 20 21 22 23 24 25 26 27 28 29 30 31 32 33 34 35 36 37 38 39 40 41 42 43 44 45 46 47 48 49 50
000
ASUS41 KLWX 270510
RWRLWX

REGIONAL WEATHER ROUNDUP
NATIONAL WEATHER SERVICE BALTIMORE MD/WASHINGTON DC
100 AM EDT WED MAY 27 2015

Note: "FAIR" indicates few or no clouds below 12,000 feet
with no significant weather and/or obstructions to visibility.
 TC=TEMPERATURE CELSIUS

 * =Non NWS site. Station does not report precipitation (e.g. rain,
    snow, etc.), thunder, or fog.

DCZ001-MDZ009-015-VAZ040>042-051-053>054-270600-
WASHINGTON METRO

CITY           SKY/WX    TMP DP  RH WIND       PRES   REMARKS
WASHINGTON NAT MOCLDY    76  67  73 S9        30.16S
DULLES         PTCLDY    75  66  73 S6        30.15S
ANDREWS AFB    PTCLDY    70  66  89 S9        30.16S
FT BELVOIR     CLEAR     73  67  82 SE5       30.15S
QUANTICO       PTCLDY    74  67  78 S9        30.16S
COLLEGE PARK*  PTCLDY    73  64  73 CALM      30.16S
LEESBURG*      PTCLDY    73  72  94 S10       30.15S
MANASSAS*      CLEAR     73  66  78 CALM      30.15S
GAITHERSBURG*  PTCLDY    73  64  73 SE6       30.20S

$$

MDZ006>007-011-014-270600-
BALTIMORE METRO

CITY           SKY/WX    TMP DP  RH WIND       PRES   REMARKS
BWI AIRPORT    MOCLDY    71  65  81 CALM      30.16S
MD SCIENCE CTR   N/A     73  66  78 MISG      30.17S
MARTIN STATE   CLEAR     72  70  94 S6        30.18S
ANNAPOLIS      CLEAR     70  66  87 S12       30.16S
FORT MEADE*    PTCLDY    66  63  88 CALM      30.19S

$$

MDZ012-015-019>023-270600-
MARYLAND EASTERN SHORE

CITY           SKY/WX    TMP DP  RH WIND       PRES   REMARKS
OCEAN CITY     CLEAR     69  64  84 SW15G23   30.22F
SALISBURY      CLEAR     69  65  86 S8        30.21F
BAY BRIDGE AP*   N/A    N/A N/A N/A S8G16     30.17S
CAMBRIDGE*     CLEAR     73  66  78 S10G16    30.19S
EASTON*        CLEAR     74  70  88 S9        30.21F

$$

MDZ017>025-270600-
SOUTHERN MARYLAND

CITY           SKY/WX    TMP DP  RH WIND       PRES   REMARKS
PATUXENT RIVER CLEAR     73  67  81 S7        30.18S
ST INIGOES     CLEAR     73  67  81 S7        30.18S
LEONARDTOWN*   CLEAR     72  64  78 S6        30.19S

$$

MDZ003>005-270600-
NORTH CENTRAL MARYLAND

CITY           SKY/WX    TMP DP  RH WIND       PRES   REMARKS
FREDERICK*     PTCLDY    73  68  83 S5        30.16S
HAGERSTOWN APT CLEAR     74  67  78 S6        30.13S
WESTMINSTER*   PTCLDY    72  66  83 SE6       30.16F

$$

MDZ501>502-270600-
WESTERN MARYLAND

CITY           SKY/WX    TMP DP  RH WIND       PRES   REMARKS
OAKLAND*       CLEAR     64 N/A N/A S9G16     30.20S
CUMBERLAND*    CLEAR     68  68 100 CALM      30.16S

$$

VAZ025>031-270600-
SHENANDOAH VALLEY

CITY           SKY/WX    TMP DP  RH WIND       PRES   REMARKS
WINCHESTER*    CLEAR     70  64  83 CALM      30.14F
FRONT ROYAL*   FAIR      70  68  94 S5        30.13F
LURAY*         FAIR      70  70 100 CALM      30.16F
NEW MARKET*    FAIR      67  67  97 SW5       30.15S
STAUNTON*      PTCLDY    66  64  95 CALM      30.20F FOG
WAYNESBORO*    FAIR      68  65  90 SW6       30.20S

$$

WVZ021-048>050-054>055-270600-
EASTERN WEST VIRGINIA PANHANDLE

CITY           SKY/WX    TMP DP  RH WIND       PRES   REMARKS
MARTINSBURG    CLEAR     70  67  90 S3        30.14S
PETERSBURG*    CLEAR     71  62  72 E5        30.15S

$$

VAZ036>039-050-270600-
CENTRAL FOOTHILLS

CITY           SKY/WX    TMP DP  RH WIND       PRES   REMARKS
CHARLOTTESVILL CLEAR     71  65  81 SW6       30.17S
CULPEPER*      CLEAR     72  66  82 CALM      30.16S
ORANGE*        CLEAR     73  66  78 SE7       30.18S
GORDONSVILLE*  FAIR      67  66  95 W3        30.16S
WARRENTON*     FAIR      73  68  84 CALM      30.15S

$$

VAZ055>057-270600-
NORTH AND CENTRAL PIEDMONT

CITY           SKY/WX    TMP DP  RH WIND       PRES   REMARKS
FREDERICKSBRG* CLEAR     76  68  76 S9        30.15S
STAFFORD*      PTCLDY    72  65  79 S5        30.20S

$$

NCZ024-NYZ072-PAZ021-071-VAZ022-071-270600-
OTHER REGIONAL OBSERVATIONS

CITY           SKY/WX    TMP DP  RH WIND       PRES   REMARKS
NEW YORK CITY  PTCLDY    73  61  65 VRB6G17   30.19S
PHILADELPHIA   PTCLDY    73  64  73 S8        30.18S
PITTSBURGH     TSTM      68  62  81 W16G24    30.10R VSB 1
ROANOKE        MOCLDY    73  63  70 E6        30.21F
RICHMOND       PTCLDY    75  68  78 S10       30.19F
RALEIGH        MOCLDY    74  68  81 S9G20     30.24S

$$

ANZ530>537-270600-
MARINE OBSERVATIONS

STATION/POSITION TIME  TEMP    WIND        PRES
                       AIR SEA DIR/SP/G
                 (UTC) (F)     (DEG/KT/KT) (MB)
THOMAS PT LIGHT  0500   70 68  170/ 17/ 19 1021.9F
BALT KEY BRIDGE  0400   72     150/  9/ 11 1021.1R
COVE POINT       0400   70     190/ 14/ 15 1022.7S
LEWISETTA        0400   74 72              1022.1R
SOLOMONS ISLAND  0400      71                N/A
PINEY POINT      0400          190/ 10/ 12   N/A

$$



USA.gov is the U.S. government's official web portal to all federal, state and local government web resources and services.